Location: Unspecified
(0.0000°N, 0.0000°E)
Time: 23:12:29
(UTC+00:00)

JUGNU - Visible Passes

Search period start: 08 June 2026 00:00
Search period end: 18 June 2026 00:00
Orbit: 833 x 860 km, 20.0° (Epoch: 8 June)

Date Brightness Start Highest point End Pass type
(mag) Time Alt. Az. Time Alt. Az. Time Alt. Az.
8 Jun ? 04:06:24 20° SSE 04:06:32 20° SSE 04:10:40 10° ESE visible
8 Jun ? 18:36:03 10° WNW 18:42:03 85° NNE 18:47:15 14° ESE visible
8 Jun ? 20:25:39 10° W 20:29:01 28° WSW 20:29:01 28° WSW visible
9 Jun ? 03:51:08 21° SSE 03:51:08 21° SSE 03:54:35 10° ESE visible
9 Jun ? 18:19:41 10° WNW 18:25:41 87° SSW 18:31:41 10° ESE visible
9 Jun ? 20:09:26 10° W 20:13:44 31° SW 20:13:44 31° SW visible
10 Jun ? 03:35:51 20° SE 03:35:51 20° SE 03:38:29 10° ESE visible
10 Jun ? 05:17:37 11° WSW 05:23:04 59° SSE 05:28:48 10° E visible
10 Jun ? 19:53:14 10° WSW 19:58:24 30° SSW 19:58:27 30° SSW visible
11 Jun ? 03:20:34 17° ESE 03:20:34 17° ESE 03:22:23 10° ESE visible
11 Jun ? 05:02:19 18° WSW 05:06:43 66° SSE 05:12:30 10° ENE visible
11 Jun ? 19:37:04 10° WSW 19:42:04 27° SSW 19:43:09 26° S visible
12 Jun ? 03:05:16 14° ESE 03:05:16 14° ESE 03:06:14 10° ESE visible
12 Jun ? 04:47:02 26° WSW 04:50:22 74° SSE 04:56:12 10° ENE visible
12 Jun ? 19:20:55 10° WSW 19:25:45 25° SSW 19:27:52 21° SSE visible
13 Jun ? 02:49:58 10° ESE 02:49:58 10° ESE 02:50:05 10° E visible
13 Jun ? 04:31:44 39° WSW 04:34:01 82° SSE 04:39:52 10° ENE visible
13 Jun ? 19:04:47 10° WSW 19:09:26 23° SSW 19:12:34 15° SSE visible
14 Jun ? 04:16:25 57° WSW 04:17:40 89° NNW 04:23:31 10° ENE visible
14 Jun ? 18:48:40 10° WSW 18:53:06 21° SSW 18:57:17 11° SSE visible
15 Jun ? 04:01:05 79° WNW 04:01:19 81° NNW 04:07:10 10° ENE visible
15 Jun ? 18:32:34 10° WSW 18:36:48 20° SSW 18:41:02 10° SSE visible
16 Jun ? 03:45:45 63° NNE 03:45:45 63° NNE 03:50:48 10° ENE visible
16 Jun ? 05:29:07 10° WNW 05:34:00 27° NNW 05:38:53 10° NE visible
17 Jun ? 03:30:23 44° NE 03:30:23 44° NE 03:34:25 10° ENE visible
17 Jun ? 05:12:58 10° WNW 05:17:42 25° NNW 05:22:24 10° NE visible
